星链-11372 (STARLINK-11372)

导读 | 豆包AI

STARLINK-11372是美国太空探索技术公司星链星座的一员,于2024年10月18日发射入轨,属于低轨通信卫星,承担卫星互联网组网任务。星链系统通过大规模部署低轨卫星,为全球提供高速宽带服务,该卫星的发射进一步完善了星链星座的覆盖能力与服务容量,持续推进星链网络的规模化部署。

基本信息
目录编号:
61576
目录名称:
STARLINK-11372
国际标识:
2024-187C
轨道中心:
EARTH
卫星名称:
星链-11372
卫星全名:
星链-11372 (STARLINK-11372)
卫星状态:
在轨 (已飞行513 天)
发射日期:
2024-10-18 UTC
国别 :
美国 (US)
星等 :
--
轨道信息
数据来源 国际轨道数据
星历时间: 2026-03-15T13:48:57+0800
7小时前
查看轨道信息
半长轴: 6737.897km
偏心率: 0.000086
轨道倾角: 53.156°
近地点辐角 108.044°
升交点赤经 268.788°
平近点角 252.067°
近地点: 359.18km
远地点: 360.34km
周期: 91.737分钟
每日圈数: 15.696987
详细信息
固有亮度:
5
最大亮度:
2.5
卫星平台:
Starlink V1.0
覆盖范围:
全球
运营商:
太空探索技术公司
运营商所在国:
美国
制造商(研发单位):
太空探索技术公司
制造商所在国:
美国
使用方式:
暂无
卫星简介
Starlink 计划是 SpaceX 推出的全球卫星互联网项目,通过发射低轨道卫星,为全球尤其是偏远地区提供高速、低延迟的互联网服务。自 2019 年起,Starlink 已部署数千颗卫星,旨在缩小全球数字鸿沟,推动互联网普及。该项目还为军事、航空等行业提供通信支持,带来广泛经济效益。
2D轨道图
3D轨道图
轨道高度分析图
轨道倾角分析图
轨道综合分析图
查看轨道综合分析图